EHI
45 44 43 43 44 40 32 27 26 25 24 21 21 22 22 20 22 21 16 13 14 16 14 12 12 13 13 11 9 9 7 5 4 3 4 4 6 7 7 9 8 5 3
43 42 40 41 42 39 32 27 25 25 23 20 20 20 21 20 21 20 17 14 14 14 12 10 10 10 11 10 10 9 6 5 4 3 4 5 6 8 8 8 7 5 4
39 38 35 35 36 33 29 25 23 23 22 20 18 18 18 18 17 17 16 14 13 13 11 9 9 9 10 10 10 8 6 5 4 3 4 5 6 7 7 6 5 5 5
35 34 31 30 28 27 25 23 21 21 21 20 18 16 15 14 13 13 13 13 13 13 11 9 8 9 10 10 9 7 6 6 6 5 4 5 6 5 4 4 5 5 5
31 30 28 25 24 23 24 23 20 18 18 18 17 14 13 11 9 9 10 11 11 10 8 6 5 5 6 6 5 4 4 4 5 5 4 5 5 3 3 3 4 3 3
25 26 24 22 20 21 22 21 19 17 15 15 14 13 11 8 5 4 7 9 10 8 7 5 2 1 2 2 2 1 1 2 3 3 3 3 4 3 4 4 3 2 1
21 22 22 20 19 18 18 18 18 17 16 14 13 13 11 7 2 1 3 7 8 8 8 6 3 1 2 2 1 1 1 1 1 1 1 1 2 4 4 3 2 1 1
19 20 20 20 19 17 16 16 16 17 16 15 13 13 11 7 3 1 1 4 6 7 8 7 4 3 3 3 3 2 2 2 1 0 0 0 1 1 1 1 1 1 0
19 19 19 19 19 18 17 16 15 15 14 13 12 12 10 7 3 1 1 3 5 6 6 5 4 3 3 3 3 3 4 3 2 1 0 0 0 0 0 0 0 0 0
19 19 19 19 19 19 19 18 15 13 11 10 10 10 9 6 3 1 1 4 5 4 4 3 3 3 2 2 2 3 4 4 3 2 1 0 0 1 1 0 0 0 0
19 18 19 19 19 19 19 17 14 11 10 10 10 10 9 6 3 1 1 3 4 3 3 3 3 3 1 0 1 2 3 3 2 2 1 0 0 1 1 0 0 0 0
19 18 18 18 18 17 16 14 12 10 9 8 8 9 9 6 4 2 1 1 2 3 3 3 3 2 1 0 0 1 1 1 1 1 0 0 0 1 1 0 0 0 0
19 18 17 17 17 15 13 12 10 9 8 7 7 8 8 6 4 3 1 0 1 2 3 3 2 1 0 0 0 0 0 0 0 0 0 0 0 0 0 0 0 0 0
19 17 15 14 14 13 11 9 9 8 7 7 8 8 7 6 5 4 2 1 1 1 2 2 2 1 0 0 0 0 0 0 0 0 0 0 0 0 0 0 0 0 0
17 15 12 11 12 11 9 7 6 6 5 7 7 7 6 5 5 4 3 3 2 2 3 3 3 2 1 1 1 1 1 1 0 0 0 0 0 0 0 0 0 0 0
16 14 11 10 10 8 5 4 4 4 3 3 3 3 3 3 2 2 2 2 2 3 3 3 3 3 3 2 2 2 2 2 1 0 0 0 0 0 0 0 0 0 0
14 12 9 8 8 5 2 2 2 2 2 1 1 1 1 1 0 1 1 1 1 2 3 3 3 3 3 3 3 3 3 2 1 0 0 0 0 0 0 0 0 0 0
13 11 8 7 6 3 1 2 1 1 1 1 0 0 0 0 0 0 0 1 1 2 3 3 3 3 3 3 2 2 1 1 0 0 0 0 0 0 0 0 0 0 0
11 9 7 6 5 3 3 2 1 0 1 1 0 0 0 0 0 0 1 2 2 2 2 2 2 2 2 1 1 1 0 0 0 0 0 0 0 0 0 0 0 0 0
10 7 6 6 6 4 3 2 1 0 0 0 0 0 0 0 0 0 1 2 2 1 1 1 1 1 1 0 0 0 0 0 0 0 0 0 0 0 0 0 0 0 0
9 6 5 6 6 4 2 1 0 0 0 0 0 0 0 0 0 0 0 1 1 0 0 0 0 0 0 0 0 0 0 0 0 0 0 0 0 0 0 0 0 0 0
8 6 5 6 5 3 1 0 0 0 0 0 0 0 0 0 0 0 0 0 0 0 0 0 0 0 0 0 0 0 0 0 0 0 0 0 0 0 0 0 0 0 0
6 6 6 5 4 3 1 1 1 0 0 1 1 0 0 0 0 0 0 0 1 1 0 0 0 0 0 0 0 0 0 0 0 0 0 0 0 0 0 0 0 0 0
4 4 4 4 3 3 3 2 2 2 2 3 2 1 1 0 0 0 1 1 2 2 1 0 0 0 0 0 0 0 0 0 0 0 0 0 0 0 0 0 0 0 0
3 3 3 3 3 3 3 4 4 5 5 5 3 2 2 1 0 0 1 2 3 3 2 1 0 0 0 0 0 0 0 0 0 0 0 0 0 0 0 0 0 0 0
3 3 3 3 3 3 4 5 6 6 6 5 3 3 2 1 0 0 1 3 3 3 2 1 0 0 0 0 0 0 0 0 0 0 0 0 0 0 0 0 0 0 0
Wind_Speed
5 5 4 5 5 4 3 3 2 2 2 3 2 2 2 2 2 2 2 1 1 1 1 1 2 2 2 1 1 1 1 1 2 2 1 1 1 1 1 1 2 4 4
5 4 4 4 4 4 4 3 3 2 2 2 2 2 3 3 2 2 2 2 1 1 1 1 2 2 2 1 1 1 1 1 1 2 1 1 1 1 1 2 2 3 3
5 5 4 4 4 4 3 3 3 3 2 2 2 2 2 2 1 1 2 2 1 1 1 1 1 1 1 1 2 1 1 2 1 1 2 1 1 1 1 1 1 1 2
5 5 4 4 4 4 3 3 3 3 2 2 2 2 2 1 1 1 1 2 2 1 1 1 1 1 2 2 2 1 1 2 1 1 1 1 1 1 0 1 1 1 1
4 4 3 3 3 3 3 3 3 2 3 2 2 2 2 2 1 0 1 2 1 1 1 1 1 0 1 1 2 1 1 1 1 1 1 1 1 1 1 1 1 1 1
4 4 4 4 4 3 3 3 3 3 2 2 2 2 2 1 2 2 1 1 1 2 2 1 1 1 1 1 1 1 1 2 1 1 1 1 1 1 1 1 1 1 2
3 4 4 4 4 4 4 4 3 3 2 2 2 2 2 1 2 1 1 1 2 2 2 2 3 2 1 1 1 2 2 2 3 2 2 2 1 1 1 2 2 2 3
3 3 4 4 4 4 3 3 3 2 2 2 2 2 2 2 3 1 1 2 2 2 2 2 2 1 1 1 1 2 2 2 3 3 3 2 2 1 2 3 3 3 3
3 3 3 3 3 3 3 3 3 2 2 2 2 2 2 3 3 2 0 2 1 1 1 1 1 0 1 1 1 2 2 2 3 3 3 3 4 5 3 2 2 2 3
2 2 2 2 2 2 2 2 2 2 2 2 2 2 3 3 4 3 1 1 1 1 1 0 2 2 1 1 1 2 2 3 2 3 3 4 5 5 6 4 3 3 3
1 2 2 2 2 2 2 2 2 2 2 2 2 2 2 4 5 4 3 1 1 1 1 0 1 1 0 1 2 2 3 3 3 3 2 3 3 2 3 3 3 3 2
1 1 2 2 1 2 2 2 2 2 3 3 3 2 2 3 4 4 4 3 2 1 1 0 1 1 1 2 2 3 4 3 2 2 2 1 1 1 1 2 2 3 3
1 1 1 2 1 1 2 2 2 2 2 2 3 3 2 3 3 4 5 4 4 1 1 1 1 2 2 2 4 4 3 2 2 2 1 2 2 1 1 1 1 2 3
1 1 1 1 2 1 1 2 2 1 2 1 1 1 1 2 3 2 2 2 2 2 2 2 3 4 3 3 2 2 2 2 1 1 2 1 1 1 1 1 1 1 2
1 1 1 1 1 1 1 0 1 1 2 2 1 1 1 1 2 3 2 2 2 1 1 2 1 1 1 2 2 2 2 1 1 1 1 1 1 1 2 1 1 2 3
1 1 1 2 2 2 2 1 2 1 3 3 2 2 1 2 4 4 3 2 2 2 1 2 2 2 2 2 1 1 1 1 1 1 1 1 1 2 2 2 2 2 2
2 1 2 2 2 2 3 3 2 1 1 1 3 4 4 4 3 3 3 2 2 2 2 2 2 2 2 1 1 1 1 1 1 1 1 1 1 2 2 2 2 2 2
2 2 2 2 2 2 3 3 3 3 3 2 3 5 6 6 5 4 3 1 2 3 3 3 3 2 2 1 1 1 0 0 1 1 1 1 1 1 2 2 2 2 2
3 2 2 2 2 3 3 3 3 2 2 3 3 3 5 5 4 4 3 3 3 3 3 3 3 2 2 1 1 1 1 1 0 1 1 1 1 1 2 2 2 3 3
2 4 4 4 3 3 3 2 2 2 2 2 2 2 3 3 3 3 3 3 3 3 2 2 2 1 0 0 0 1 1 1 0 0 1 1 1 1 2 2 2 2 2
3 3 4 4 3 2 2 2 2 2 2 2 2 3 4 3 3 3 3 3 3 3 2 1 1 1 1 1 1 1 1 1 1 2 2 2 2 1 2 2 2 2 3
2 2 2 2 2 2 2 2 2 2 1 1 1 3 4 3 2 2 2 2 2 2 1 1 1 1 1 1 1 1 1 1 2 2 2 2 2 2 2 2 3 2 3
2 2 2 2 2 2 2 2 2 2 2 1 1 0 1 1 1 1 1 1 1 0 0 0 0 1 1 1 2 1 1 1 2 2 2 3 3 3 3 3 4 4 3
2 3 3 2 2 2 2 2 2 2 1 1 1 1 1 1 2 2 1 1 0 0 0 1 0 0 1 2 2 1 2 2 2 2 3 3 3 3 3 3 3 4 4
2 2 3 2 2 3 3 2 2 2 2 2 2 2 2 2 2 1 1 1 1 1 1 0 0 0 2 2 2 2 2 2 2 2 3 3 3 3 4 4 4 4 4
3 3 3 2 2 2 3 3 2 2 2 2 2 2 2 2 2 1 1 1 1 1 1 0 1 1 1 1 1 1 1 1 2 2 3 3 3 3 4 4 5 4 4
Wind_Direction
173 175 169 171 171 169 170 169 170 173 160 168 181 189 202 203 196 210 248 237 226 238 258 286 296 293 294 291 276 258 249 231 250 275 259 254 256 268 221 235 195 189 193
171 169 168 165 166 166 167 165 163 168 181 181 191 204 215 213 210 212 241 252 239 250 259 288 302 307 306 293 289 277 273 257 241 258 270 260 242 230 213 236 234 206 194
167 165 163 169 168 165 168 168 167 171 183 201 204 216 219 231 216 216 236 254 247 251 257 272 296 317 304 293 278 277 287 290 250 237 250 247 227 249 231 249 262 251 226
158 158 163 168 173 173 178 173 170 176 189 206 210 216 216 228 232 223 237 244 247 254 265 258 269 284 278 274 271 278 287 291 281 265 253 247 237 259 222 248 280 284 267
141 146 155 154 160 167 175 168 168 182 192 199 206 224 226 214 236 286 256 237 252 261 275 264 248 354 298 265 265 263 268 265 267 268 262 271 333 358 301 301 298 293 299
145 156 159 158 161 168 177 174 173 181 190 197 211 216 231 228 92 60 5 270 257 253 254 260 227 238 244 244 254 244 253 247 257 273 287 278 296 304 303 295 288 298 291
150 157 168 177 174 173 183 173 174 184 194 204 218 205 177 135 119 88 358 267 236 241 245 254 265 254 224 218 227 220 226 237 225 228 254 270 271 283 305 290 275 272 266
154 171 184 176 169 171 179 173 176 182 192 206 211 204 179 156 143 122 330 278 247 225 237 254 264 260 249 9 269 254 241 239 233 222 229 249 257 271 258 259 260 279 278
172 177 177 172 163 167 174 177 176 182 196 207 201 203 168 153 162 161 272 267 241 230 240 260 259 230 88 44 286 271 273 258 239 235 232 233 231 241 244 261 269 271 285
173 161 147 153 156 155 165 166 169 179 191 199 187 188 171 160 165 168 178 263 245 245 213 136 57 58 73 77 269 263 273 280 270 251 241 237 232 230 226 219 237 257 277
124 144 145 137 145 150 148 150 163 187 188 185 183 189 170 157 164 180 190 252 284 268 271 263 101 97 66 271 272 262 263 287 284 262 244 226 220 211 202 211 220 237 259
77 101 120 122 138 141 147 173 186 196 195 192 193 197 179 157 162 183 199 225 279 303 316 8 109 157 263 277 276 267 267 282 269 268 259 244 232 217 222 222 223 237 239
59 82 108 122 127 136 169 192 196 203 215 204 195 196 177 153 150 172 198 225 248 259 342 6 268 230 243 254 253 256 255 257 260 262 266 271 262 236 215 223 238 242 251
76 79 128 156 154 148 179 198 196 207 221 210 193 196 163 153 145 156 191 206 226 233 258 276 247 244 248 250 253 240 228 235 245 262 276 279 288 278 253 229 261 265 270
159 158 177 187 160 143 170 254 209 195 198 179 170 176 178 157 171 180 195 202 207 225 259 246 245 244 233 225 222 216 212 202 222 259 279 298 305 293 277 262 243 258 265
185 201 218 210 174 174 189 175 40 152 148 144 142 154 137 149 165 170 174 203 212 202 231 257 253 250 242 229 215 204 195 191 221 251 265 268 274 279 279 273 261 263 268
212 213 235 228 202 202 204 195 176 165 170 179 179 173 173 168 169 176 183 192 228 209 220 241 254 251 249 260 254 238 207 188 217 259 268 273 278 284 287 283 277 277 279
214 226 248 236 231 227 222 218 210 198 185 199 211 198 189 190 194 199 193 176 228 222 227 229 237 237 233 253 263 263 256 194 198 262 283 284 284 285 290 291 289 291 286
224 231 248 253 241 241 239 233 232 217 190 165 155 174 199 196 202 217 207 228 239 244 237 234 241 242 227 218 232 262 274 260 227 257 279 283 292 298 307 313 312 313 303
240 242 256 260 245 242 247 247 251 233 207 179 170 157 163 185 200 195 210 234 244 256 262 263 273 276 282 298 225 244 271 290 302 284 307 308 304 309 311 308 300 299 299
247 241 247 259 255 255 262 263 265 259 235 199 186 172 178 201 215 207 204 218 237 253 269 296 303 307 317 339 340 342 350 3 9 352 332 307 301 308 301 292 288 296 300
272 257 246 263 281 282 269 268 271 268 262 260 184 180 183 203 212 219 223 223 233 238 243 284 305 323 318 303 19 22 354 345 344 342 328 319 313 306 304 303 307 305 298
289 291 279 275 277 275 265 261 265 272 267 262 252 201 191 250 269 261 250 239 233 223 223 190 301 335 356 18 48 40 354 344 330 327 317 309 311 305 303 308 306 302 300
296 297 296 295 293 281 275 276 273 274 283 309 304 260 239 247 275 284 289 285 254 214 229 244 258 321 44 46 39 26 19 1 336 318 307 296 294 298 303 303 304 310 309
280 287 289 291 296 299 293 284 285 287 285 278 278 278 268 261 258 274 304 320 333 316 271 235 302 11 66 55 44 31 29 25 13 341 308 293 290 296 303 303 304 302 302
288 289 292 291 291 294 300 301 296 291 288 287 281 278 283 286 285 300 317 324 312 314 304 90 29 56 53 69 76 88 76 24 355 329 300 289 292 295 306 297 297 295 297